Location: Red Deer
(52.2681°N, 113.8112°W)
Time: 10:27:34
(UTC-06:00)

YUBILEINY - Visible Passes

Search period start: 17 May 2022 00:00
Search period end: 27 May 2022 00:00
Orbit: 1479 x 1508 km, 82.5° (Epoch: 17 May)

Date Brightness Start Highest point End Pass type
(mag) Time Alt. Az. Time Alt. Az. Time Alt. Az.
17 May ? 01:40:52 10° WSW 01:48:32 33° WNW 01:56:19 10° N visible
17 May ? 03:47:17 10° NW 03:49:07 11° NNW 03:50:57 10° NNW visible
17 May ? 22:53:30 11° SSE 23:01:28 48° E 23:09:45 10° NNE visible
18 May ? 00:49:51 10° SW 00:58:17 51° WNW 01:06:51 10° N visible
18 May ? 02:52:44 10° WNW 02:57:46 16° NW 03:02:51 10° N visible
18 May ? 22:05:21 10° SE 22:12:28 29° E 22:19:38 10° NNE visible
18 May ? 23:59:41 10° SSW 00:08:24 80° WNW 00:17:17 10° N visible
19 May ? 02:00:01 10° WSW 02:06:51 24° NW 02:13:45 10° N visible
19 May ? 23:10:15 10° S 23:18:51 67° E 23:27:34 10° NNE visible
20 May ? 01:08:21 10° SW 01:16:19 37° WNW 01:24:23 10° N visible
20 May ? 03:13:27 10° NW 03:16:34 12° NNW 03:19:43 10° N visible
20 May ? 22:21:40 10° SSE 22:29:38 42° E 22:37:40 10° NNE visible
21 May ? 00:17:36 10° SSW 00:26:11 58° WNW 00:34:54 10° N visible
21 May ? 02:19:41 10° W 02:25:21 18° NW 02:31:04 10° N visible
21 May ? 23:27:38 10° S 23:36:24 90° W 23:45:17 10° NNE visible
22 May ? 01:27:19 10° WSW 01:34:33 28° NW 01:41:52 10° N visible
22 May ? 22:38:28 10° SSE 22:46:57 59° E 22:55:31 10° NNE visible
23 May ? 00:35:56 10° SW 00:44:08 43° WNW 00:52:28 10° N visible
23 May ? 02:40:00 10° WNW 02:44:04 14° NW 02:48:09 10° N visible
23 May ? 23:45:25 10° SSW 23:54:06 67° WNW 00:02:56 10° N visible
24 May ? 01:46:46 10° W 01:52:58 21° NW 01:59:14 10° N visible
24 May ? 22:55:41 10° S 23:04:25 80° E 23:13:16 10° NNE visible
25 May ? 00:54:42 10° WSW 01:02:17 31° WNW 01:09:57 10° N visible
25 May ? 03:01:51 10° NW 03:02:59 10° NNW 03:04:08 10° NNW visible
25 May ? 22:06:45 10° SSE 22:15:04 51° E 22:23:28 10° NNE visible
26 May ? 00:03:36 10° SW 00:11:59 49° WNW 00:20:31 10° N visible
26 May ? 02:06:47 10° WNW 02:11:35 15° NW 02:16:27 10° N visible
26 May ? 23:13:18 10° SSW 23:22:04 76° WNW 23:30:56 10° N visible
